When you browse on this site, cookies collect data to enhance your experience and personalize the content and advertising you see.
Visit our Privacy Policy to learn more. By continuing to use the site, you agree to this use of cookies and data.
  • In Lithuania
  • List of Countries
  • For 7 days
  • Water Temperature
  • Weather Map
  • Weather Widgets
  • user-avatar
    Login

    Hourly Weather Kerns

    Today, 17 August, Saturday

    Time Temperature Precipitation Wind Pressure Humidity
    00:00 +21°C° 0.1 mm 3 mps 763 mmHg 97%
    01:00 +20°C° 0.1 mm 3 mps 762 mmHg 97%
    02:00 +20°C° 0.1 mm 3 mps 762 mmHg 97%
    03:00 +20°C° 0.1 mm 3 mps 762 mmHg 97%
    04:00 +21°C° 0 mm 3 mps 762 mmHg 96%
    05:00 +20°C° 0.1 mm 3 mps 762 mmHg 97%
    06:00 +20°C° 0.1 mm 3 mps 763 mmHg 97%
    07:00 +20°C° 0.1 mm 3 mps 763 mmHg 97%
    08:00 +21°C° 0.1 mm 4 mps 763 mmHg 89%
    09:00 +23°C° 0.1 mm 4 mps 763 mmHg 81%
    10:00 +26°C° 0 mm 4 mps 763 mmHg 74%
    11:00 +26°C° 0 mm 4 mps 763 mmHg 70%
    12:00 +27°C° 0 mm 4 mps 762 mmHg 66%
    13:00 +27°C° 0 mm 4 mps 761 mmHg 62%
    14:00 +27°C° 0 mm 4 mps 761 mmHg 62%
    15:00 +27°C° 0 mm 4 mps 761 mmHg 62%
    16:00 +27°C° 0 mm 4 mps 761 mmHg 63%
    17:00 +25°C° 0 mm 3 mps 761 mmHg 72%
    18:00 +22°C° 0 mm 3 mps 761 mmHg 81%
    19:00 +20°C° 0 mm 3 mps 761 mmHg 89%
    20:00 +20°C° 0 mm 3 mps 762 mmHg 92%
    21:00 +19°C° 0 mm 3 mps 762 mmHg 94%
    22:00 +19°C° 0 mm 3 mps 762 mmHg 96%
    23:00 +18°C° 0 mm 3 mps 762 mmHg 96%

    Tomorrow, 18 August, Sunday

    Time Temperature Precipitation Wind Pressure Humidity
    00:00 +18°C° 0 mm 3 mps 762 mmHg 95%
    01:00 +18°C° 0 mm 2 mps 762 mmHg 95%
    02:00 +18°C° 0 mm 3 mps 762 mmHg 94%
    03:00 +17°C° 0 mm 3 mps 762 mmHg 94%
    04:00 +17°C° 0 mm 3 mps 762 mmHg 93%
    05:00 +18°C° 0 mm 3 mps 762 mmHg 94%
    06:00 +18°C° 0 mm 3 mps 763 mmHg 94%
    07:00 +18°C° 0 mm 3 mps 763 mmHg 95%
    08:00 +21°C° 0 mm 3 mps 763 mmHg 83%
    09:00 +23°C° 0 mm 4 mps 763 mmHg 72%
    10:00 +27°C° 0 mm 4 mps 763 mmHg 61%
    11:00 +28°C° 0 mm 4 mps 763 mmHg 58%
    12:00 +29°C° 0 mm 5 mps 762 mmHg 55%
    13:00 +29°C° 0 mm 5 mps 762 mmHg 53%
    14:00 +29°C° 0 mm 5 mps 761 mmHg 55%
    15:00 +28°C° 0 mm 5 mps 760 mmHg 57%
    16:00 +28°C° 0 mm 5 mps 760 mmHg 59%
    17:00 +25°C° 0 mm 4 mps 760 mmHg 68%
    18:00 +22°C° 0 mm 4 mps 761 mmHg 77%
    19:00 +20°C° 0 mm 4 mps 761 mmHg 86%
    20:00 +19°C° 0 mm 3 mps 762 mmHg 88%
    21:00 +18°C° 0 mm 3 mps 762 mmHg 91%
    22:00 +18°C° 0 mm 3 mps 763 mmHg 93%
    23:00 +17°C° 0 mm 3 mps 762 mmHg 93%

    Day after tomorrow, 19 August, Monday

    Time Temperature Precipitation Wind Pressure Humidity
    00:00 +17°C° 0 mm 3 mps 762 mmHg 93%
    01:00 +17°C° 0 mm 3 mps 762 mmHg 93%
    02:00 +16°C° 0 mm 3 mps 762 mmHg 93%
    03:00 +16°C° 0 mm 3 mps 762 mmHg 94%
    04:00 +16°C° 0 mm 3 mps 761 mmHg 94%
    05:00 +16°C° 0 mm 3 mps 762 mmHg 94%
    06:00 +16°C° 0 mm 2 mps 762 mmHg 93%
    07:00 +16°C° 0 mm 2 mps 763 mmHg 93%
    08:00 +20°C° 0 mm 2 mps 763 mmHg 79%
    09:00 +24°C° 0 mm 3 mps 763 mmHg 64%
    10:00 +27°C° 0 mm 3 mps 763 mmHg 50%
    11:00 +28°C° 0 mm 3 mps 762 mmHg 46%
    12:00 +29°C° 0 mm 4 mps 762 mmHg 43%
    13:00 +30°C° 0 mm 4 mps 761 mmHg 39%
    14:00 +30°C° 0 mm 4 mps 761 mmHg 40%
    15:00 +30°C° 0 mm 5 mps 760 mmHg 41%
    16:00 +29°C° 0 mm 5 mps 760 mmHg 43%
    17:00 +26°C° 0 mm 4 mps 761 mmHg 55%
    18:00 +23°C° 0 mm 4 mps 761 mmHg 67%
    19:00 +20°C° 0 mm 4 mps 761 mmHg 79%
    20:00 +19°C° 0 mm 3 mps 762 mmHg 79%
    21:00 +19°C° 0 mm 3 mps 762 mmHg 80%
    22:00 +18°C° 0 mm 3 mps 763 mmHg 80%
    23:00 +18°C° 0 mm 3 mps 763 mmHg 79%

    20 August, Tuesday

    Time Temperature Precipitation Wind Pressure Humidity
    00:00 +18°C° 0 mm 3 mps 762 mmHg 79%
    01:00 +17°C° 0 mm 3 mps 762 mmHg 78%
    02:00 +17°C° 0 mm 3 mps 762 mmHg 81%
    03:00 +17°C° 0 mm 3 mps 762 mmHg 83%
    04:00 +17°C° 0 mm 3 mps 762 mmHg 86%
    05:00 +17°C° 0 mm 3 mps 762 mmHg 86%
    06:00 +17°C° 0 mm 3 mps 763 mmHg 87%
    07:00 +17°C° 0 mm 3 mps 763 mmHg 87%
    08:00 +20°C° 0 mm 4 mps 763 mmHg 75%
    09:00 +23°C° 0 mm 5 mps 763 mmHg 63%
    10:00 +27°C° 0 mm 5 mps 763 mmHg 51%
    11:00 +28°C° 0 mm 6 mps 763 mmHg 50%
    12:00 +28°C° 0 mm 7 mps 762 mmHg 49%
    13:00 +29°C° 0 mm 7 mps 762 mmHg 48%
    14:00 +28°C° 0 mm 7 mps 761 mmHg 48%
    15:00 +28°C° 0 mm 7 mps 761 mmHg 49%
    16:00 +27°C° 0 mm 7 mps 761 mmHg 49%
    17:00 +24°C° 0 mm 6 mps 762 mmHg 62%
    18:00 +21°C° 0 mm 6 mps 762 mmHg 75%
    19:00 +19°C° 0 mm 5 mps 763 mmHg 88%
    20:00 +17°C° 0 mm 5 mps 763 mmHg 90%
    21:00 +17°C° 0 mm 4 mps 763 mmHg 93%
    22:00 +17°C° 0 mm 4 mps 764 mmHg 95%
    23:00 +17°C° 0 mm 4 mps 763 mmHg 94%

    21 August, Wednesday

    Time Temperature Precipitation Wind Pressure Humidity
    00:00 +16°C° 0 mm 5 mps 763 mmHg 93%
    01:00 +17°C° 0 mm 5 mps 763 mmHg 92%
    02:00 +16°C° 0 mm 5 mps 762 mmHg 93%
    03:00 +16°C° 0 mm 5 mps 762 mmHg 94%
    04:00 +16°C° 0 mm 5 mps 762 mmHg 95%
    05:00 +15°C° 0 mm 5 mps 762 mmHg 94%
    06:00 +15°C° 0 mm 5 mps 763 mmHg 93%
    07:00 +15°C° 0 mm 5 mps 763 mmHg 92%
    08:00 +19°C° 0 mm 5 mps 763 mmHg 78%
    09:00 +21°C° 0 mm 5 mps 763 mmHg 63%
    10:00 +24°C° 0 mm 6 mps 763 mmHg 49%
    11:00 +26°C° 0 mm 6 mps 763 mmHg 45%
    12:00 +27°C° 0 mm 6 mps 762 mmHg 41%
    13:00 +27°C° 0 mm 6 mps 761 mmHg 36%
    14:00 +27°C° 0 mm 6 mps 761 mmHg 35%
    15:00 +26°C° 0 mm 6 mps 761 mmHg 34%
    16:00 +26°C° 0 mm 6 mps 760 mmHg 33%
    17:00 +22°C° 0 mm 5 mps 761 mmHg 42%
    18:00 +20°C° 0 mm 5 mps 761 mmHg 52%
    19:00 +17°C° 0 mm 4 mps 762 mmHg 62%
    20:00 +15°C° 0 mm 4 mps 762 mmHg 65%
    21:00 +15°C° 0 mm 4 mps 762 mmHg 68%
    22:00 +14°C° 0 mm 3 mps 763 mmHg 72%
    23:00 +14°C° 0 mm 3 mps 763 mmHg 74%

    22 August, Thursday

    Time Temperature Precipitation Wind Pressure Humidity
    00:00 +13°C° 0 mm 3 mps 763 mmHg 76%
    01:00 +13°C° 0 mm 3 mps 762 mmHg 79%
    02:00 +13°C° 0 mm 3 mps 762 mmHg 82%
    03:00 +13°C° 0 mm 3 mps 762 mmHg 86%
    04:00 +13°C° 0 mm 3 mps 762 mmHg 90%
    05:00 +13°C° 0 mm 3 mps 762 mmHg 91%
    06:00 +13°C° 0 mm 3 mps 763 mmHg 92%
    07:00 +13°C° 0 mm 3 mps 763 mmHg 93%
    08:00 +18°C° 0 mm 4 mps 763 mmHg 76%
    09:00 +21°C° 0 mm 4 mps 763 mmHg 59%
    10:00 +26°C° 0 mm 4 mps 763 mmHg 42%
    11:00 +27°C° 0 mm 4 mps 762 mmHg 39%
    12:00 +27°C° 0 mm 5 mps 762 mmHg 37%
    13:00 +28°C° 0 mm 5 mps 761 mmHg 34%
    14:00 +28°C° 0 mm 5 mps 761 mmHg 35%
    15:00 +27°C° 0 mm 5 mps 760 mmHg 36%
    16:00 +26°C° 0 mm 5 mps 760 mmHg 37%
    17:00 +22°C° 0 mm 4 mps 760 mmHg 46%
    18:00 +20°C° 0 mm 4 mps 761 mmHg 54%
    19:00 +17°C° 0 mm 3 mps 761 mmHg 62%
    20:00 +16°C° 0 mm 3 mps 762 mmHg 64%
    21:00 +14°C° 0 mm 3 mps 762 mmHg 66%
    22:00 +15°C° 0 mm 2 mps 763 mmHg 68%
    23:00 +14°C° 0 mm 2 mps 762 mmHg 66%
    Show more